"2009-07-22 00:00:00",1083169,4.053,42.64,5.434,0.426,18.41,108.3923,20.77,21.75,56.16,0,111.1,13.15,21.59,4.6
"2009-07-22 00:00:30",1083170,3.754,37.01,6.752,0.244,18.53,108.3923,20.77,21.74,56.2,0,111.1,13.15,21.59,359.0
"2009-07-22 00:01:00",1083171,3.244,39.44,5.421,0.222,18.47,108.3923,20.77,21.74,56.16,0,111.1,13.15,21.59,1.4
"2009-07-22 00:01:30",1083172,3.168,30.65,3.731,0.527,18.33,108.3923,20.77,21.75,56.08,0,111.1,13.15,21.59,352.6
"2009-07-22 00:02:00",1083173,3.792,32.89,8.69,0.533,18.24,108.3923,20.77,21.76,55.85,0,111.1,13.15,21.59,354.9
"2009-07-22 00:02:30",1083174,4.733,46.37,3.282,0.595,18.29,108.3923,20.77,21.76,55.88,0,111.1,13.15,21.59,8.4
"2009-07-22 00:03:00",1083175,6.217,39.75,1.697,0.501,18.35,108.3923,20.77,21.77,55.94,0,111.1,13.15,21.59,1.8
"2009-07-22 00:03:30",1083176,5.158,35.4,5.15,0.582,18.45,108.3923,20.77,21.78,55.95,0,111.1,13.16,21.59,357.4
"2009-07-22 00:04:00",1083177,4.478,31.18,3.117,0.487,18.56,108.3923,20.77,21.79,56.01,0,111.1,13.16,21.59,353.2
"2009-07-22 00:04:30",1083178,4.041,23.74,3.132,0.662,18.58,108.3923,20.77,21.78,56.28,0,111.1,13.16,21.59,345.7
"2009-07-22 00:05:00",1083179,3.409,28.03,6.398,0.512,18.51,108.3923,20.77,21.78,56.17,0,111.1,13.16,21.59,350.0
"2009-07-22 00:05:30",1083180,4.11,30.62,3.734,0.657,18.56,108.3923,20.77,21.77,56.64,0,111,13.16,21.59,352.6
"2009-07-22 00:06:00",1083181,5.23,34.84,2.512,0.484,18.35,108.3923,20.77,21.77,56.48,0,111.1,13.16,21.59,356.8
"2009-07-22 00:06:30",1083182,4.263,38.18,6.671,0.77,18.22,108.3923,20.77,21.76,56.42,0,111.1,13.16,21.59,0.2
"2009-07-22 00:07:00",1083183,4.929,36.94,3.117,0.384,18.22,108.3923,20.77,21.77,56.22,0,111.1,13.16,21.59,358.9
"2009-07-22 00:07:30",1083184,5.746,42.5,4.706,0.56,18.21,108.3923,20.77,21.77,56.15,0,111,13.16,21.59,4.5
"2009-07-22 00:08:00",1083185,5.578,39.1,5.621,0.548,18.29,108.3923,20.77,21.77,56.12,0,111.1,13.16,21.59,1.1
"2009-07-22 00:08:30",1083186,5.073,31.52,3.532,0.718,18.34,108.3923,20.77,21.78,56.11,0,111.1,13.16,21.59,353.5
"2009-07-22 00:09:00",1083187,5.445,40.05,4.753,0.431,18.26,108.3923,20.77,21.77,56.04,0,111.1,13.16,21.59,2.0
"2009-07-22 00:09:30",1083188,5.787,40.43,3.91,0.409,18.2,108.3923,20.77,21.78,55.93,0,111,13.16,21.59,2.4
"2009-07-22 00:10:00",1083189,5.809,32.94,1.764,0.305,18.22,108.3923,20.77,21.78,55.85,0,111.1,13.16,21.59,354.9
"2009-07-22 00:10:30",1083190,5.507,30.05,2.114,0.5,18.29,108.3926,20.77,21.77,55.81,0,111,13.16,21.59,352.0
"2009-07-22 00:11:00",1083191,5.36,32.26,2.681,0.679,18.32,108.3923,20.77,21.78,55.83,0,111.1,13.16,21.59,354.3
"2009-07-22 00:11:30",1083192,6.199,35.03,7.912,0.734,18.54,108.3932,20.77,21.78,56,0,111,13.16,21.59,357.0
"2009-07-22 00:12:00",1083193,7.667,44.69,5.099,0.43,18.51,108.3896,20.76,21.77,55.87,0,111,13.16,21.58,6.7
"2009-07-22 00:12:30",1083194,6.3,43.04,4.442,0.477,18.36,108.3791,20.73,21.77,55.8,0,111,13.16,21.56,5.0
"2009-07-22 00:13:00",1083195,5.784,47.52,7.625,0.828,18.71,108.3683,20.7,21.75,55.91,0,111,13.16,21.53,9.5
"2009-07-22 00:13:30",1083196,7.095,53.45,3.382,0.425,18.48,108.3414,20.64,21.68,55.99,0,111,13.16,21.46,15.5
"2009-07-22 00:14:00",1083197,6.285,52.67,3.859,0.579,18.47,108.3385,20.63,21.67,55.97,0,111,13.16,21.45,14.7
"2009-07-22 00:14:30",1083198,6.058,54.74,3.795,0.375,18.31,108.3343,20.62,21.65,55.88,0,111,13.16,21.44,16.7
"2009-07-22 00:15:00",1083199,6.675,49.3,5.102,0.827,18.36,108.3349,20.62,21.65,56.06,0,111,13.16,21.44,11.3
"2009-07-22 00:15:30",1083200,6.637,44.53,1.602,0.744,18.39,108.3416,20.64,21.64,56.08,0,111,13.16,21.46,6.5
"2009-07-22 00:16:00",1083201,5.379,40.58,3.533,0.55,18.42,108.3386,20.63,21.64,56.16,0,111,13.16,21.45,2.6
"2009-07-22 00:16:30",1083202,4.321,47.3,4.75,0.218,18.4,108.3217,20.58,21.62,56.52,0,111,13.16,21.41,9.3
"2009-07-22 00:17:00",1083203,5.321,49.31,5.418,0.648,18.4,108.3163,20.57,21.61,56.47,0,111,13.16,21.39,11.3
"2009-07-22 00:17:30",1083204,6.368,46.62,3.885,0.49,18.32,108.3149,20.57,21.59,56.33,0,111,13.16,21.39,8.6
"2009-07-22 00:18:00",1083205,6.362,55.99,2.449,0.239,18.37,108.3159,20.57,21.58,56.35,0,111,13.16,21.39,18.0
"2009-07-22 00:18:30",1083206,6.257,47.43,7.291,0.871,18.59,108.3128,20.56,21.56,56.41,0,111,13.16,21.39,9.4
"2009-07-22 00:19:00",1083207,5.02,55.79,5.931,0.543,18.42,108.2955,20.52,21.54,56.46,0,111,13.16,21.34,17.8
"2009-07-22 00:19:30",1083208,5.491,59.08,1.941,0.137,18.37,108.2885,20.5,21.53,56.32,0,111,13.16,21.32,21.1
"2009-07-22 00:20:00",1083209,5.221,54.9,2.191,0.218,18.33,108.2849,20.49,21.51,56.29,0,111,13.16,21.31,16.9
"2009-07-22 00:20:30",1083210,5.151,53.48,2.171,0.141,18.31,108.2846,20.49,21.51,56.22,0,111,13.16,21.31,15.5
"2009-07-22 00:21:00",1083211,5.023,51.31,2.645,0.38,18.27,108.2806,20.48,21.5,56.25,0,111,13.16,21.30,13.3
"2009-07-22 00:21:30",1083212,5.512,46.12,5.937,0.592,18.38,108.2691,20.45,21.49,56.46,0,111,13.16,21.27,8.1
"2009-07-22 00:22:00",1083213,5.734,51.53,2.723,0.521,18.33,108.2542,20.41,21.48,56.62,0,111,13.16,21.24,13.5
"2009-07-22 00:22:30",1083214,6.528,49.21,1.856,0.237,18.31,108.2527,20.41,21.47,56.68,0,111,13.16,21.23,11.2
"2009-07-22 00:23:00",1083215,6.52,47.58,2.867,0.385,18.35,108.2518,20.41,21.45,56.79,0,111,13.16,21.23,9.6
"2009-07-22 00:23:30",1083216,6.235,49.82,4.018,0.345,18.43,108.2377,20.37,21.43,56.67,0,111,13.16,21.19,11.8
"2009-07-22 00:24:00",1083217,6.053,50.71,2.145,0.384,18.42,108.224,20.33,21.41,56.56,0,111,13.16,21.16,12.7
"2009-07-22 00:24:30",1083218,5.552,57.03,1.943,0.466,18.48,108.2235,20.33,21.4,56.63,0,111,13.16,21.16,19.0
"2009-07-22 00:25:00",1083219,6.119,50.42,3.078,0.526,18.43,108.2251,20.34,21.39,56.66,0,111,13.16,21.16,12.4
"2009-07-22 00:25:30",1083220,5.876,45.07,4.684,0.32,18.44,108.2088,20.3,21.37,56.98,0,111,13.16,21.12,7.1
"2009-07-22 00:26:00",1083221,6.091,45.23,2.159,0.459,18.43,108.1944,20.26,21.34,56.76,0,111,13.17,21.08,7.2
"2009-07-22 00:26:30",1083222,6.232,44.88,1.779,0.635,18.54,108.1922,20.25,21.33,56.68,0,111,13.17,21.08,6.9
"2009-07-22 00:27:00",1083223,5.619,39.16,5.545,0.883,18.53,108.1929,20.25,21.31,56.88,0,111,13.17,21.08,1.2
"2009-07-22 00:27:30",1083224,5.899,41.71,4.134,0.424,18.47,108.1926,20.25,21.31,57.4,0,111,13.17,21.08,3.7
"2009-07-22 00:28:00",1083225,5.696,49.4,3.448,0.457,18.5,108.1909,20.25,21.28,57.45,0,111,13.17,21.07,11.4
"2009-07-22 00:28:30",1083226,5.363,49.29,3.357,0.252,18.49,108.1853,20.23,21.28,57.75,0,111,13.17,21.06,11.3
"2009-07-22 00:29:00",1083227,5.315,40.75,1.966,0.278,18.45,108.1782,20.22,21.26,57.77,0,111,13.17,21.04,2.8
"2009-07-22 00:29:30",1083228,5.711,39.51,2.544,0.323,18.4,108.1757,20.21,21.26,57.68,0,111,13.17,21.03,1.5
"2009-07-22 00:30:00",1083229,4.598,31.91,6.328,0.377,18.42,108.1737,20.21,21.25,57.53,0,111,13.17,21.03,353.9
"2009-07-22 00:30:30",1083230,4.024,46.84,3.626,0.263,18.34,108.1743,20.21,21.25,57.68,0,111,13.17,21.03,8.8
"2009-07-22 00:31:00",1083231,5.008,47.23,2.724,0.241,18.31,108.1766,20.21,21.24,57.69,0,111,13.17,21.04,9.2
"2009-07-22 00:31:30",1083232,5.494,43.19,2.899,0.259,18.39,108.1771,20.21,21.25,57.36,0,111,13.17,21.04,5.2
"2009-07-22 00:32:00",1083233,4.739,49.18,4.886,0.25,18.37,108.1771,20.21,21.25,57.25,0,111,13.17,21.04,11.2
"2009-07-22 00:32:30",1083234,4.923,50.09,2.382,0.173,18.37,108.176,20.21,21.24,57.27,0,111,13.16,21.03,12.1
"2009-07-22 00:33:00",1083235,5.278,51.58,2.677,0.425,18.37,108.1743,20.21,21.24,57.26,0,111,13.16,21.03,13.6
"2009-07-22 00:33:30",1083236,5.447,50.24,3.263,0.259,18.46,108.1726,20.2,21.23,57.62,0,111,13.16,21.02,12.2
"2009-07-22 00:34:00",1083237,4.606,45.55,6.689,0.408,18.48,108.169,20.19,21.23,57.86,0,111,13.16,21.02,7.5
"2009-07-22 00:34:30",1083238,4.751,48.16,3.808,0.583,18.58,108.169,20.19,21.24,57.92,0,111,13.16,21.02,10.2
"2009-07-22 00:35:00",1083239,5.847,45.22,7.973,0.5,18.5,108.169,20.19,21.24,57.91,0,111,13.16,21.02,7.2
"2009-07-22 00:35:30",1083240,5.616,43.43,4.45,0.432,18.49,108.1687,20.19,21.23,57.94,0,111,13.16,21.01,5.4
"2009-07-22 00:36:00",1083241,6.766,46.51,3.414,0.286,18.44,108.1712,20.2,21.22,58.05,0,111,13.16,21.02,8.5
"2009-07-22 00:36:30",1083242,6.286,49.15,5.225,0.733,18.45,108.1698,20.2,21.23,57.96,0,111,13.16,21.02,11.2
"2009-07-22 00:37:00",1083243,6.621,48.55,2.028,0.313,18.43,108.1676,20.19,21.23,57.71,0,111,13.16,21.01,10.5
"2009-07-22 00:37:30",1083244,6.57,39.62,4.364,0.29,18.45,108.1622,20.18,21.23,57.83,0,111,13.16,21.00,1.6
"2009-07-22 00:38:00",1083245,5.798,34.99,2.718,0.657,18.47,108.1597,20.17,21.22,58.19,0,111,13.17,20.99,357.0
"2009-07-22 00:38:30",1083246,6.669,36.22,4.019,0.608,18.66,108.1597,20.17,21.21,58.34,0,111,13.17,20.99,358.2
"2009-07-22 00:39:00",1083247,7.079,41.7,4.08,0.66,18.76,108.1594,20.17,21.2,58.41,0,111,13.17,20.99,3.7
"2009-07-22 00:39:30",1083248,6.564,39.79,4.187,0.542,18.75,108.16,20.17,21.21,58.27,0,111,13.17,20.99,1.8
"2009-07-22 00:40:00",1083249,7.027,41.26,2.842,0.31,18.58,108.161,20.17,21.2,58.24,0,111,13.17,21.00,3.3
"2009-07-22 00:40:30",1083250,6.718,41.38,2.814,0.361,18.58,108.161,20.17,21.2,58.01,0,111,13.17,21.00,3.4
"2009-07-22 00:41:00",1083251,6.921,44,1.569,0.171,18.46,108.1616,20.17,21.19,57.78,0,111,13.17,21.00,6.0
"2009-07-22 00:41:30",1083252,6.4,45.21,1.766,0.27,18.52,108.1619,20.17,21.19,57.52,0,111,13.17,21.00,7.2
"2009-07-22 00:42:00",1083253,6.492,42.03,4.173,0.359,18.54,108.1619,20.17,21.19,57.68,0,111,13.17,21.00,4.0
"2009-07-22 00:42:30",1083254,6.806,40.94,2.777,0.334,18.48,108.1637,20.18,21.18,58.08,0,111,13.17,21.00,2.9
"2009-07-22 00:43:00",1083255,6.083,40.19,2.781,0.4,18.42,108.1622,20.18,21.18,57.9,0,111,13.17,21.00,2.2
"2009-07-22 00:43:30",1083256,6.428,41.67,2.682,0.573,18.4,108.1596,20.17,21.18,58.09,0,111,13.17,20.99,3.7
"2009-07-22 00:44:00",1083257,6.541,44.35,2.382,0.356,18.42,108.1476,20.14,21.18,58.23,0,111,13.18,20.96,6.3
"2009-07-22 00:44:30",1083258,6.949,45.89,2.299,0.884,18.6,108.1423,20.12,21.18,58.26,0,111,13.18,20.95,7.9
"2009-07-22 00:45:00",1083259,6.587,46.16,3.422,0.767,18.71,108.1429,20.13,21.17,58.31,0,111,13.18,20.95,8.2
"2009-07-22 00:45:30",1083260,6.849,46.23,2.182,0.561,18.47,108.1405,20.12,21.16,58.36,0,111,13.18,20.94,8.2
"2009-07-22 00:46:00",1083261,7.735,41.07,3.009,0.822,18.5,108.1427,20.13,21.15,58.34,0,111,13.18,20.95,3.1
"2009-07-22 00:46:30",1083262,7.266,39.97,3.666,0.63,18.41,108.1424,20.13,21.15,58.32,0,111,13.18,20.95,2.0
"2009-07-22 00:47:00",1083263,7.077,51.48,5.053,0.261,18.43,108.1467,20.14,21.14,58.33,0,110.9,13.18,20.96,13.5
"2009-07-22 00:47:30",1083264,7.065,52.83,5.359,0.36,18.44,108.1488,20.14,21.14,58.28,0,111,13.18,20.96,14.8
"2009-07-22 00:48:00",1083265,7.619,45.46,2.677,0.563,18.39,108.1348,20.11,21.11,58.21,0,110.9,13.18,20.93,7.5
"2009-07-22 00:48:30",1083266,8.24,43.01,2.38,0.639,18.44,108.1207,20.07,21.11,58.16,0,111,13.18,20.89,5.0
"2009-07-22 00:49:00",1083267,7.904,44.29,1.897,0.341,18.61,108.1187,20.06,21.1,58.32,0,111,13.18,20.89,6.3
"2009-07-22 00:49:30",1083268,7.696,42.64,2.624,0.448,18.71,108.1187,20.06,21.1,58.53,0,111,13.17,20.89,4.6
"2009-07-22 00:50:00",1083269,7.581,44.63,2.042,0.632,18.63,108.1156,20.06,21.07,58.63,0,111,13.17,20.88,6.6
"2009-07-22 00:50:30",1083270,7.014,47.76,2.306,0.58,18.67,108.105,20.03,21.05,58.82,0,111,13.17,20.85,9.8
"2009-07-22 00:51:00",1083271,7.275,46.73,3.48,0.344,18.44,108.0949,20,21.05,58.73,0,111,13.17,20.82,8.7
"2009-07-22 00:51:30",1083272,7.124,48.67,1.931,0.28,18.38,108.0915,19.99,21.03,58.54,0,111,13.17,20.82,10.7
"2009-07-22 00:52:00",1083273,6.617,44.5,1.632,0.322,18.37,108.0862,19.98,21.02,58.41,0,111,13.17,20.80,6.5
"2009-07-22 00:52:30",1083274,6.538,54.65,2.766,0.327,18.39,108.0887,19.99,21.02,58.46,0,110.9,13.17,20.81,16.7
"2009-07-22 00:53:00",1083275,5.918,52.93,3.383,0.232,18.36,108.0849,19.98,21,58.5,0,111,13.17,20.80,14.9
"2009-07-22 00:53:30",1083276,6.007,48.01,1.781,0.173,18.36,108.068,19.93,21,58.39,0,111,13.17,20.76,10.0
"2009-07-22 00:54:00",1083277,5.905,46.65,1.731,0.223,18.31,108.0597,19.91,20.98,58.33,0,110.9,13.17,20.73,8.7
"2009-07-22 00:54:30",1083278,5.838,49.4,1.999,0.294,18.31,108.0595,19.91,20.96,58.57,0,110.9,13.17,20.73,11.4
"2009-07-22 00:55:00",1083279,6.077,53.51,2.256,0.334,18.32,108.0589,19.91,20.94,58.69,0,110.9,13.18,20.73,15.5
"2009-07-22 00:55:30",1083280,6.468,55.52,2.524,0.212,18.28,108.0511,19.89,20.94,58.63,0,110.9,13.18,20.71,17.5
"2009-07-22 00:56:00",1083281,6.668,57.79,0.749,0.151,18.33,108.0314,19.84,20.92,58.74,0,110.9,13.18,20.66,19.8
"2009-07-22 00:56:30",1083282,7.582,56.72,1.24,0.365,18.3,108.027,19.83,20.89,58.96,0,110.9,13.18,20.65,18.7
"2009-07-22 00:57:00",1083283,7.504,55.41,2.713,0.2,18.26,108.0261,19.83,20.88,59.23,0,110.9,13.18,20.65,17.4
"2009-07-22 00:57:30",1083284,6.995,57.37,3.973,0.22,18.25,108.0048,19.77,20.86,59.19,0,111,13.18,20.59,19.4
"2009-07-22 00:58:00",1083285,7.571,57.42,2.265,0.317,18.31,107.9933,19.74,20.84,59.17,0,111,13.18,20.56,19.4
"2009-07-22 00:58:30",1083286,7.707,59.4,1.888,0.222,18.27,107.9924,19.74,20.82,59.09,0,110.9,13.18,20.56,21.4
"2009-07-22 00:59:00",1083287,7.286,59.9,4.068,0.355,18.32,107.9747,19.69,20.81,59.38,0,110.9,13.18,20.52,21.9
"2009-07-22 00:59:30",1083288,7.328,53.36,5.789,0.341,18.3,107.9595,19.66,20.78,59.41,0,110.9,13.18,20.48,15.4
"2009-07-22 01:00:00",1083289,6.907,51.72,2.759,0.184,18.28,107.9576,19.65,20.75,59.37,0,110.9,13.18,20.47,13.7
"2009-07-22 01:00:30",1083290,7.076,58.54,3.538,0.26,18.31,107.9334,19.59,20.73,59.19,0,110.9,13.18,20.41,20.5
"2009-07-22 01:01:00",1083291,7.283,60.75,2.553,0.25,18.25,107.9258,19.57,20.71,59.22,0,110.9,13.18,20.39,22.8
"2009-07-22 01:01:30",1083292,6.267,59.53,6.44,0.492,18.28,107.9258,19.57,20.69,59.58,0,110.9,13.18,20.39,21.5
"2009-07-22 01:02:00",1083293,6.907,63.11,2.435,0.33,18.31,107.9106,19.53,20.65,59.92,0,110.9,13.18,20.35,25.1
"2009-07-22 01:02:30",1083294,7.762,60.71,1.686,0.327,18.23,107.894,19.49,20.64,59.81,0,110.9,13.18,20.31,22.7
"2009-07-22 01:03:00",1083295,7.289,63.61,2.532,0.236,18.22,107.8921,19.48,20.62,59.62,0,110.9,13.18,20.30,25.6
"2009-07-22 01:03:30",1083296,7.015,62.48,1.306,0.174,18.23,107.8912,19.48,20.6,59.81,0,110.9,13.18,20.30,24.5
"2009-07-22 01:04:00",1083297,7.462,62.56,3.852,0.396,18.29,107.8701,19.43,20.57,59.67,0,110.9,13.18,20.25,24.6
"2009-07-22 01:04:30",1083298,7.107,64.65,2.145,0.611,18.32,107.8589,19.4,20.55,60.05,0,110.9,13.18,20.22,26.7
"2009-07-22 01:05:00",1083299,6.752,60.41,2.266,0.584,18.37,107.8583,19.4,20.53,60.19,0,110.9,13.19,20.22,22.4
"2009-07-22 01:05:30",1083300,6.728,60.72,2.893,0.375,18.23,107.8593,19.4,20.52,60.2,0,110.9,13.19,20.22,22.7
"2009-07-22 01:06:00",1083301,6.116,61.41,2.731,0.398,18.23,107.8532,19.38,20.51,60.26,0,110.9,13.19,20.20,23.4
"2009-07-22 01:06:30",1083302,6.883,64.72,2.314,0.479,18.24,107.8389,19.35,20.49,60.23,0,110.9,13.19,20.17,26.7
"2009-07-22 01:07:00",1083303,6.814,66.34,1.597,0.32,18.23,107.8384,19.35,20.48,60.22,0,110.9,13.19,20.16,28.3
"2009-07-22 01:07:30",1083304,6.917,60.78,3.494,0.358,18.23,107.8328,19.33,20.45,60.46,0,110.9,13.19,20.15,22.8
"2009-07-22 01:08:00",1083305,7.154,61.62,2.146,0.222,18.2,107.837,19.34,20.45,60.48,0,110.9,13.19,20.16,23.6
"2009-07-22 01:08:30",1083306,6.507,60.35,2.961,0.277,18.22,107.8368,19.34,20.43,60.54,0,110.9,13.19,20.16,22.3
"2009-07-22 01:09:00",1083307,6.542,62.49,2.616,0.246,18.22,107.8316,19.33,20.42,60.62,0,110.9,13.19,20.15,24.5
"2009-07-22 01:09:30",1083308,5.5,64.14,3.651,0.611,18.26,107.8192,19.3,20.4,60.77,0,110.9,13.19,20.12,26.1
"2009-07-22 01:10:00",1083309,5.861,60.06,7.196,0.428,18.32,107.8189,19.3,20.4,60.91,0,110.9,13.19,20.11,22.1
"2009-07-22 01:10:30",1083310,6.395,63.4,4.979,0.311,18.24,107.8153,19.29,20.36,60.79,0,110.9,13.19,20.11,25.4
"2009-07-22 01:11:00",1083311,6.034,59.07,2.009,0.303,18.21,107.8139,19.28,20.37,60.52,0,110.9,13.19,20.10,21.1
"2009-07-22 01:11:30",1083312,5.761,65.55,3.615,0.242,18.2,107.8173,19.29,20.36,60.66,0,110.9,13.19,20.11,27.6
"2009-07-22 01:12:00",1083313,5.032,67.98,4.181,0.367,18.19,107.8173,19.29,20.36,60.82,0,110.9,13.19,20.11,30.0
"2009-07-22 01:12:30",1083314,5.427,63.63,2.022,0.337,18.22,107.8173,19.29,20.34,60.97,0,110.9,13.19,20.11,25.6
"2009-07-22 01:13:00",1083315,5.547,64.31,3.592,0.398,18.23,107.8179,19.29,20.35,60.98,0,110.9,13.19,20.11,26.3
"2009-07-22 01:13:30",1083316,5.339,65.72,3.496,0.319,18.21,107.8156,19.29,20.32,60.51,0,110.9,13.19,20.11,27.7
"2009-07-22 01:14:00",1083317,5.185,66.85,3.208,0.345,18.24,107.8166,19.29,20.32,60.12,0,110.9,13.2,20.11,28.8
"2009-07-22 01:14:30",1083318,5.802,70.18,0.453,0.081,18.18,107.8127,19.28,20.31,58.64,0,110.9,13.2,20.10,32.2
"2009-07-22 01:15:00",1083319,5.589,71.07,0.648,0.077,18.3,107.8111,19.27,20.31,58.1,0,110.9,13.2,20.09,33.1
"2009-07-22 01:15:30",1083320,5.486,65.68,1.662,0.169,18.19,107.8103,19.27,20.29,58.78,0,110.9,13.2,20.09,27.7
"2009-07-22 01:16:00",1083321,5.566,67.91,1.927,0.195,18.16,107.8057,19.26,20.3,59.34,0,110.9,13.2,20.08,29.9
"2009-07-22 01:16:30",1083322,5.612,71.29,2.336,0.193,18.18,107.7973,19.24,20.29,59.11,0,110.9,13.2,20.06,33.3
"2009-07-22 01:17:00",1083323,5.781,66.56,2.309,0.164,18.26,107.7954,19.23,20.27,58.06,0,110.9,13.2,20.05,28.6
"2009-07-22 01:17:30",1083324,5.902,60.92,1.322,0.23,18.25,107.7938,19.23,20.28,58.08,0,110.9,13.2,20.05,22.9
"2009-07-22 01:18:00",1083325,5.342,59.77,2.311,0.221,18.19,107.7935,19.23,20.28,58.71,0,110.9,13.2,20.05,21.8
"2009-07-22 01:18:30",1083326,5.647,63.66,1.116,0.181,18.1,107.7935,19.23,20.27,58.07,0,110.9,13.2,20.05,25.7
"2009-07-22 01:19:00",1083327,5.467,66.02,2.007,0.162,18.14,107.7935,19.23,20.26,58.58,0,110.9,13.2,20.05,28.0
"2009-07-22 01:19:30",1083328,5.89,67.46,2.23,0.178,18.17,107.7935,19.23,20.26,58.52,0,110.9,13.2,20.05,29.5
"2009-07-22 01:20:00",1083329,5.291,58.08,3.532,0.315,18.27,107.7935,19.23,20.28,59.02,0,110.9,13.2,20.05,20.1
"2009-07-22 01:20:30",1083330,5.34,57.06,2.283,0.364,18.28,107.7893,19.22,20.24,59.14,0,110.9,13.2,20.04,19.1
"2009-07-22 01:21:00",1083331,5.748,62.19,4.68,0.255,18.35,107.7727,19.18,20.24,59.67,0,110.9,13.2,20.00,24.2
"2009-07-22 01:21:30",1083332,5.601,65.17,3.272,0.362,18.36,107.7612,19.15,20.25,59.47,0,110.9,13.2,19.97,27.2
"2009-07-22 01:22:00",1083333,5.875,58.45,4.07,0.546,18.46,107.7598,19.14,20.23,59.47,0,110.9,13.2,19.96,20.5
"2009-07-22 01:22:30",1083334,5.039,56.21,3.658,0.308,18.38,107.7598,19.14,20.22,59.76,0,110.9,13.2,19.96,18.2
"2009-07-22 01:23:00",1083335,5.195,56.34,3.406,0.224,18.41,107.7564,19.13,20.2,60.18,0,110.9,13.2,19.95,18.3
"2009-07-22 01:23:30",1083336,5.039,61.27,3.535,0.318,18.41,107.7356,19.08,20.2,60.32,0,110.9,13.2,19.90,23.3
"2009-07-22 01:24:00",1083337,4.72,62.24,3.858,0.212,18.36,107.726,19.06,20.18,59.78,0,110.9,13.2,19.88,24.2
"2009-07-22 01:24:30",1083338,5.137,63.95,2.143,0.324,18.47,107.7263,19.06,20.16,59.57,0,110.9,13.2,19.88,26.0
"2009-07-22 01:25:00",1083339,5.662,65.52,2.872,0.322,18.42,107.7258,19.06,20.15,59.45,0,110.9,13.19,19.87,27.5
"2009-07-22 01:25:30",1083340,5.806,61.58,3.094,0.266,18.42,107.7129,19.02,20.14,58.98,0,110.9,13.2,19.84,23.6
"2009-07-22 01:26:00",1083341,5.481,66.43,1.7,0.084,18.37,107.698,18.98,20.11,58.58,0,110.9,13.2,19.80,28.4
"2009-07-22 01:26:30",1083342,6.046,63.77,1.686,0.378,18.35,107.695,18.98,20.1,58.9,0,110.9,13.2,19.80,25.8
"2009-07-22 01:27:00",1083343,5.28,59.06,4.66,0.281,18.32,107.6956,18.98,20.09,59.57,0,110.9,13.2,19.80,21.1
"2009-07-22 01:27:30",1083344,5.155,60.87,3.325,0.59,18.25,107.6962,18.98,20.07,59.48,0,110.9,13.2,19.80,22.9
"2009-07-22 01:28:00",1083345,5.775,62.91,2.927,0.348,18.25,107.6807,18.94,20.05,59.51,0,110.9,13.2,19.76,24.9
"2009-07-22 01:28:30",1083346,5.871,61.27,1.332,0.132,18.17,107.6683,18.91,20.03,59.06,0,110.8,13.2,19.73,23.3
"2009-07-22 01:29:00",1083347,5.858,62.36,2.006,0.115,18.14,107.6619,18.89,20.03,59.36,0,110.8,13.2,19.71,24.4
"2009-07-22 01:29:30",1083348,5.682,64.09,3.707,0.296,18.16,107.6676,18.91,20.01,59.44,0,110.8,13.2,19.73,26.1
"2009-07-22 01:30:00",1083349,4.864,49.3,1.617,0.285,18.09,107.6725,18.92,20,59.95,0,110.8,13.2,19.74,11.3
"2009-07-22 01:30:30",1083350,4.461,51.6,3.978,0.197,18.1,107.6662,18.9,19.99,60.58,0,110.8,13.21,19.72,13.6
"2009-07-22 01:31:00",1083351,4.723,57.4,3.586,0.293,18.1,107.656,18.88,19.97,60.82,0,110.8,13.21,19.70,19.4
"2009-07-22 01:31:30",1083352,4.817,55.99,3.947,0.199,18.1,107.6514,18.87,19.96,60.54,0,110.8,13.21,19.68,18.0
"2009-07-22 01:32:00",1083353,4.143,52.48,1.589,0.243,18.13,107.6512,18.86,19.94,60.96,0,110.8,13.21,19.68,14.5
"2009-07-22 01:32:30",1083354,4.622,53.24,1.901,0.384,18.13,107.6524,18.87,19.95,61.37,0,110.8,13.21,19.69,15.2
"2009-07-22 01:33:00",1083355,5.087,57.31,5.816,0.305,18.1,107.6527,18.87,19.94,61.3,0,110.8,13.21,19.69,19.3
"2009-07-22 01:33:30",1083356,5.182,54.81,9.22,0.331,18.09,107.6533,18.87,19.91,61.02,0,110.8,13.21,19.69,16.8
"2009-07-22 01:34:00",1083357,5.193,50.29,6.293,0.17,18.03,107.6465,18.85,19.91,61.23,0,110.8,13.21,19.67,12.3
"2009-07-22 01:34:30",1083358,4.723,59.92,4.414,0.349,18.08,107.6353,18.82,19.89,61.23,0,110.8,13.21,19.64,21.9
"2009-07-22 01:35:00",1083359,5.692,56.15,2.012,0.143,18.03,107.6329,18.82,19.89,61.14,0,110.8,13.21,19.64,18.2
"2009-07-22 01:35:30",1083360,4.938,49.05,4.328,0.406,18.04,107.6264,18.8,19.87,61.53,0,110.8,13.21,19.62,11.0
"2009-07-22 01:36:00",1083361,4.816,39.1,2.632,0.465,18.07,107.6268,18.8,19.88,61.92,0,110.8,13.21,19.62,1.1
"2009-07-22 01:36:30",1083362,4.199,36.42,3.997,0.621,18.09,107.6271,18.8,19.85,62.24,0,110.8,13.21,19.62,358.4
"2009-07-22 01:37:00",1083363,5.128,44.88,1.961,0.314,18.01,107.6249,18.8,19.84,62.29,0,110.8,13.21,19.62,6.9
"2009-07-22 01:37:30",1083364,4.879,45.51,2.967,0.178,18.09,107.6108,18.76,19.83,62.46,0,110.8,13.21,19.58,7.5
"2009-07-22 01:38:00",1083365,5.055,41.7,3.864,0.325,18.14,107.6007,18.74,19.81,62.34,0,110.8,13.21,19.55,3.7
"2009-07-22 01:38:30",1083366,5.189,44.9,3.028,0.272,18.08,107.5939,18.72,19.8,62.18,0,110.8,13.21,19.54,6.9
"2009-07-22 01:39:00",1083367,5.162,45.52,2.999,0.37,18.11,107.5937,18.72,19.79,61.94,0,110.8,13.21,19.53,7.5
"2009-07-22 01:39:30",1083368,5.441,46.2,1.75,0.152,18.07,107.5937,18.72,19.77,61.92,0,110.8,13.21,19.53,8.2
"2009-07-22 01:40:00",1083369,5.211,41.92,2.722,0.189,18.04,107.5914,18.71,19.76,62.14,0,110.8,13.21,19.53,3.9
"2009-07-22 01:40:30",1083370,5.393,45.18,1.504,0.239,18.06,107.5813,18.69,19.74,62.24,0,110.8,13.21,19.50,7.2
"2009-07-22 01:41:00",1083371,5.571,48.29,1.453,0.271,18.18,107.5678,18.65,19.74,61.75,0,110.8,13.21,19.47,10.3
"2009-07-22 01:41:30",1083372,5.992,51.7,2.085,0.17,18.29,107.5602,18.63,19.71,60.72,0,110.8,13.21,19.45,13.7
"2009-07-22 01:42:00",1083373,6.086,54.47,2.725,0.422,18.31,107.5599,18.63,19.7,60.34,0,110.8,13.21,19.45,16.5
"2009-07-22 01:42:30",1083374,6.354,54.75,2.91,0.166,18.39,107.5599,18.63,19.68,60.93,0,110.8,13.21,19.45,16.8
"2009-07-22 01:43:00",1083375,6.123,55.74,2.658,0.245,18.41,107.5582,18.63,19.67,60.73,0,110.8,13.21,19.44,17.7
"2009-07-22 01:43:30",1083376,6.378,56.1,2.697,0.381,18.44,107.538,18.57,19.66,60.54,0,110.8,13.21,19.39,18.1
"2009-07-22 01:44:00",1083377,6.537,56.87,2.64,0.291,18.47,107.5298,18.55,19.63,60.23,0,110.8,13.21,19.37,18.9
"2009-07-22 01:44:30",1083378,6.515,56.37,1.945,0.239,18.5,107.5261,18.54,19.62,61.08,0,110.8,13.21,19.36,18.4
"2009-07-22 01:45:00",1083379,6.671,57.63,2.011,0.128,18.5,107.5261,18.54,19.62,60.76,0,110.8,13.21,19.36,19.6
"2009-07-22 01:45:30",1083380,6.8,54.92,2.41,0.24,18.49,107.5242,18.54,19.61,60.69,0,110.8,13.21,19.36,16.9
"2009-07-22 01:46:00",1083381,6.847,54.75,2.773,0.291,18.45,107.5143,18.51,19.58,60.92,0,110.8,13.21,19.33,16.8
"2009-07-22 01:46:30",1083382,6.901,54.71,2.998,0.266,18.45,107.498,18.47,19.58,61.22,0,110.8,13.21,19.29,16.7
"2009-07-22 01:47:00",1083383,6.802,45.97,2.404,0.259,18.43,107.4933,18.46,19.55,61.47,0,110.8,13.22,19.28,8.0
"2009-07-22 01:47:30",1083384,6.975,51.37,2.089,0.294,18.41,107.493,18.46,19.56,61.69,0,110.8,13.22,19.28,13.4
"2009-07-22 01:48:00",1083385,6.957,46.1,3.4,0.227,18.46,107.4881,18.45,19.53,62.1,0,110.8,13.22,19.26,8.1
"2009-07-22 01:48:30",1083386,6.781,43.82,2.835,0.272,18.51,107.4779,18.42,19.52,62.64,0,110.8,13.22,19.24,5.8